Location: Hungerford
(51.4167°N, 1.5167°W)
Time: 10:24:54
(UTC+00:00)

Cosmos 1048 Rocket - Pass Details

Date: 26 January 2021
Orbit: 743 x 791 km, 74.0° (Epoch: 07 March)

Event Time Altitude Azimuth Distance (km) Brightness Sun altitude
Rises 19:52:25 0° 332° (NNW) 3,197 7.7 -28.9°
Reaches altitude 10° 19:54:49 10° 328° (NNW) 2,271 6.9 -29.3°
Maximum altitude 19:59:48 54° 252° (WSW) 912 4.5 -30.0°
Enters shadow 19:59:59 53° 244° (WSW) 915 4.5 -30.1°
